Location: Observatoire
(46.1952°N, 5.3391°E)
Time: 15:55:48
(UTC+01:00)

Injun/Solrad 3 - Pass Details

Date: 19 February 2026
Orbit: 872 x 984 km, 66.8° (Epoch: 7 March)

Event Time Altitude Azimuth Distance (km) Brightness Sun altitude
Rises 21:12:48 0° 320° (NW) 3,583 11.8 -31.9°
Reaches altitude 10° 21:15:29 10° 312° (NW) 2,654 11.0 -32.4°
Maximum altitude 21:21:02 36° 249° (WSW) 1,478 9.2 -33.3°
Enters shadow 21:22:36 31° 219° (SW) 1,612 9.2 -33.5°
